| time (UTC) | temp F | wind direction | speed MPH | gust MPH | rain 1hr in | rain 24hr in | rain mn in | humidity % | barometer mb |
| 20260507033017 | 50 | 353 | 0.0 | 4.0 | 0.02 | 0.32 | 0.28 | 93 | 1010.6 |
| 20260507032017 | 50 | 0.0 | 1.0 | 0.01 | 0.31 | 0.28 | 94 | 1010.6 | |
| 20260507031016 | 50 | 0.0 | 0.0 | 0.01 | 0.31 | 0.28 | 94 | 1010.5 | |
| 20260507030017 | 50 | 0.0 | 0.0 | 0.02 | 0.31 | 0.28 | 94 | 1010.4 | |
| 20260507025017 | 50 | 0.0 | 0.0 | 0.03 | 0.31 | 0.28 | 94 | 1010.3 | |
| 20260507024016 | 50 | 0.0 | 0.0 | 0.05 | 0.31 | 0.28 | 94 | 1010.3 | |
| 20260507023016 | 50 | 0.0 | 0.0 | 0.05 | 0.31 | 0.27 | 94 | 1010.3 | |
| 20260507022017 | 51 | 0.0 | 0.0 | 0.06 | 0.31 | 0.27 | 94 | 1010.2 | |
| 20260507021017 | 50 | 0.0 | 0.0 | 0.06 | 0.31 | 0.27 | 94 | 1010.1 | |
| 20260507020037 | 50 | 0.0 | 0.0 | 0.10 | 0.30 | 0.26 | 94 | 1010.0 | |
| 20260507015017 | 50 | 0.0 | 0.0 | 0.11 | 0.28 | 0.24 | 94 | 1009.9 | |
| 20260507014017 | 50 | 121 | 0.0 | 1.0 | 0.12 | 0.27 | 0.23 | 94 | 1009.8 |
| 20260507013017 | 50 | 33 | 0.0 | 2.0 | 0.12 | 0.26 | 0.22 | 93 | 1009.8 |
| 20260507012018 | 51 | 123 | 0.0 | 3.0 | 0.13 | 0.25 | 0.21 | 93 | 1009.8 |
| 20260507011016 | 51 | 125 | 1.0 | 6.0 | 0.13 | 0.24 | 0.20 | 93 | 1009.8 |
| 20260507010155 | 51 | 131 | 2.0 | 6.0 | 0.09 | 0.20 | 0.16 | 92 | 1009.8 |
| 20260507005017 | 51 | 0.0 | 4.0 | 0.08 | 0.17 | 0.13 | 92 | 1009.8 | |
| 20260507004016 | 51 | 349 | 0.0 | 1.0 | 0.07 | 0.15 | 0.11 | 92 | 1009.7 |
| 20260507003037 | 51 | 117 | 0.0 | 5.0 | 0.07 | 0.14 | 0.10 | 91 | 1009.8 |
| 20260507002017 | 51 | 151 | 0.0 | 3.0 | 0.06 | 0.13 | 0.09 | 92 | 1009.8 |
| 20260507001017 | 51 | 126 | 0.0 | 7.0 | 0.06 | 0.12 | 0.08 | 91 | 1009.8 |
| 20260507000016 | 52 | 340 | 0.0 | 6.0 | 0.04 | 0.10 | 0.06 | 91 | 1009.8 |
| 20260506235017 | 52 | 355 | 0.0 | 7.0 | 0.03 | 0.09 | 0.06 | 91 | 1009.9 |
| 20260506234017 | 52 | 351 | 1.0 | 4.0 | 0.02 | 0.08 | 0.04 | 91 | 1009.8 |
| 20260506233037 | 52 | 25 | 0.0 | 5.0 | 0.02 | 0.07 | 0.03 | 91 | 1009.7 |
| 20260506232017 | 53 | 37 | 0.0 | 4.0 | 0.03 | 0.07 | 0.03 | 91 | 1009.7 |
| 20260506231017 | 53 | 48 | 1.0 | 7.0 | 0.02 | 0.06 | 0.02 | 91 | 1009.5 |
| 20260506230017 | 53 | 109 | 0.0 | 6.0 | 0.02 | 0.06 | 0.02 | 90 | 1009.4 |
| 20260506225017 | 53 | 122 | 0.0 | 5.0 | 0.03 | 0.06 | 0.02 | 90 | 1009.4 |
| 20260506224017 | 54 | 126 | 0.0 | 5.0 | 0.03 | 0.06 | 0.02 | 91 | 1009.3 |
| 20260506223017 | 54 | 125 | 0.0 | 5.0 | 0.03 | 0.05 | 0.01 | 91 | 1009.3 |
| 20260506222017 | 54 | 119 | 1.0 | 5.0 | 0.03 | 0.04 | 0.00 | 91 | 1009.2 |
| 20260506221017 | 54 | 131 | 0.0 | 5.0 | 0.03 | 0.04 | 0.00 | 91 | 1009.1 |
| 20260506220017 | 54 | 130 | 0.0 | 8.0 | 0.04 | 0.05 | 0.00 | 91 | 1009.0 |
| 20260506215017 | 54 | 127 | 2.0 | 8.0 | 0.03 | 0.04 | 0.04 | 91 | 1009.0 |
| 20260506214017 | 54 | 127 | 1.0 | 7.0 | 0.02 | 0.04 | 0.03 | 90 | 1008.9 |
| 20260506213017 | 54 | 135 | 1.0 | 7.0 | 0.02 | 0.03 | 0.02 | 90 | 1008.8 |
| 20260506212017 | 55 | 129 | 1.0 | 9.0 | 0.01 | 0.02 | 0.02 | 90 | 1008.7 |
| 20260506211017 | 55 | 125 | 2.0 | 7.0 | 0.01 | 0.02 | 0.02 | 89 | 1008.7 |
| 20260506210017 | 55 | 128 | 1.0 | 5.0 | 0.00 | 0.02 | 0.01 | 89 | 1008.7 |
| 20260506205017 | 55 | 128 | 1.0 | 5.0 | 0.00 | 0.02 | 0.01 | 88 | 1008.7 |
| 20260506204017 | 55 | 130 | 1.0 | 6.0 | 0.00 | 0.02 | 0.01 | 87 | 1008.6 |
| 20260506203017 | 56 | 130 | 0.0 | 9.0 | 0.00 | 0.02 | 0.01 | 86 | 1008.6 |
| 20260506202017 | 56 | 122 | 1.0 | 7.0 | 0.00 | 0.02 | 0.01 | 85 | 1008.5 |
| 20260506201017 | 56 | 8 | 1.0 | 7.0 | 0.00 | 0.02 | 0.01 | 85 | 1008.4 |
| 20260506200017 | 56 | 117 | 0.0 | 5.0 | 0.00 | 0.02 | 0.01 | 85 | 1008.3 |
| 20260506195037 | 56 | 0.0 | 3.0 | 0.00 | 0.02 | 0.01 | 85 | 1008.3 | |
| 20260506194017 | 56 | 111 | 0.0 | 6.0 | 0.00 | 0.02 | 0.01 | 85 | 1008.1 |
| 20260506193017 | 56 | 127 | 1.0 | 7.0 | 0.00 | 0.02 | 0.01 | 84 | 1008.0 |
| 20260506192017 | 56 | 124 | 0.0 | 4.0 | 0.00 | 0.02 | 0.01 | 84 | 1007.8 |
| 20260506191017 | 56 | 124 | 0.0 | 4.0 | 0.00 | 0.02 | 0.01 | 84 | 1007.7 |
| 20260506190018 | 56 | 103 | 0.0 | 4.0 | 0.00 | 0.02 | 0.01 | 83 | 1007.6 |
| 20260506185017 | 57 | 122 | 0.0 | 4.0 | 0.00 | 0.02 | 0.01 | 82 | 1007.5 |
| 20260506184017 | 57 | 120 | 0.0 | 8.0 | 0.00 | 0.02 | 0.01 | 82 | 1007.2 |
| 20260506183017 | 57 | 128 | 1.0 | 7.0 | 0.00 | 0.02 | 0.01 | 81 | 1007.0 |
| 20260506182057 | 57 | 88 | 0.0 | 6.0 | 0.00 | 0.02 | 0.01 | 81 | 1006.9 |
| 20260506181037 | 58 | 124 | 1.0 | 7.0 | 0.00 | 0.02 | 0.01 | 80 | 1006.9 |
| 20260506180037 | 58 | 54 | 0.0 | 10.0 | 0.00 | 0.02 | 0.01 | 79 | 1006.9 |
| 20260506175017 | 58 | 127 | 1.0 | 9.0 | 0.00 | 0.02 | 0.01 | 79 | 1006.7 |
| 20260506174017 | 59 | 126 | 1.0 | 8.0 | 0.00 | 0.02 | 0.01 | 78 | 1006.7 |
| 20260506173017 | 59 | 131 | 1.0 | 11.0 | 0.00 | 0.02 | 0.01 | 79 | 1006.6 |
| 20260506172017 | 60 | 100 | 1.0 | 10.0 | 0.00 | 0.02 | 0.01 | 78 | 1006.6 |
| 20260506171017 | 61 | 57 | 1.0 | 7.0 | 0.00 | 0.02 | 0.01 | 75 | 1006.4 |
| 20260506170017 | 61 | 121 | 2.0 | 7.0 | 0.00 | 0.03 | 0.01 | 72 | 1006.4 |
| 20260506165017 | 62 | 356 | 0.0 | 4.0 | 0.00 | 0.05 | 0.01 | 71 | 1006.2 |
| 20260506164017 | 62 | 38 | 0.0 | 7.0 | 0.00 | 0.06 | 0.01 | 69 | 1006.1 |
| 20260506163017 | 62 | 39 | 0.0 | 5.0 | 0.00 | 0.07 | 0.01 | 67 | 1006.0 |
| 20260506162017 | 62 | 2 | 1.0 | 8.0 | 0.00 | 0.08 | 0.01 | 68 | 1006.0 |
| 20260506161017 | 62 | 89 | 0.0 | 1.0 | 0.00 | 0.09 | 0.01 | 72 | 1006.1 |
| 20260506160017 | 62 | 125 | 3.0 | 9.0 | 0.00 | 0.09 | 0.01 | 72 | 1006.1 |
| 20260506155017 | 62 | 120 | 0.0 | 2.0 | 0.00 | 0.11 | 0.01 | 73 | 1006.1 |
| 20260506154017 | 62 | 127 | 0.0 | 3.0 | 0.00 | 0.13 | 0.01 | 72 | 1006.1 |
| 20260506153017 | 63 | 121 | 1.0 | 4.0 | 0.00 | 0.17 | 0.01 | 71 | 1006.1 |
| 20260506152017 | 63 | 122 | 2.0 | 7.0 | 0.00 | 0.22 | 0.01 | 70 | 1006.1 |
| 20260506151017 | 63 | 121 | 3.0 | 6.0 | 0.00 | 0.28 | 0.01 | 68 | 1006.0 |
| 20260506150017 | 64 | 120 | 3.0 | 7.0 | 0.00 | 0.33 | 0.01 | 67 | 1006.0 |
| 20260506145017 | 65 | 118 | 1.0 | 5.0 | 0.00 | 0.36 | 0.01 | 64 | 1006.0 |
| 20260506144017 | 65 | 0.0 | 1.0 | 0.00 | 0.39 | 0.01 | 60 | 1005.9 | |
| 20260506143017 | 65 | 136 | 0.0 | 1.0 | 0.00 | 0.42 | 0.01 | 59 | 1005.9 |
| 20260506142017 | 66 | 357 | 0.0 | 6.0 | 0.00 | 0.47 | 0.01 | 58 | 1006.0 |
| 20260506141017 | 67 | 332 | 0.0 | 2.0 | 0.00 | 0.52 | 0.01 | 57 | 1006.0 |
| 20260506140017 | 67 | 314 | 0.0 | 5.0 | 0.00 | 0.54 | 0.01 | 56 | 1005.9 |
| 20260506135017 | 67 | 359 | 0.0 | 2.0 | 0.00 | 0.56 | 0.01 | 56 | 1005.9 |
| 20260506134017 | 66 | 0.0 | 0.0 | 0.00 | 0.56 | 0.01 | 60 | 1005.9 | |
| 20260506133017 | 66 | 128 | 0.0 | 4.0 | 0.00 | 0.56 | 0.01 | 59 | 1005.9 |
| 20260506132017 | 66 | 3 | 0.0 | 2.0 | 0.00 | 0.56 | 0.01 | 58 | 1005.9 |
| 20260506131017 | 65 | 354 | 1.0 | 9.0 | 0.00 | 0.56 | 0.01 | 60 | 1006.0 |
| 20260506130017 | 66 | 346 | 1.0 | 6.0 | 0.00 | 0.56 | 0.01 | 58 | 1005.9 |
| 20260506125017 | 67 | 357 | 0.0 | 6.0 | 0.00 | 0.56 | 0.01 | 58 | 1005.9 |
| 20260506124017 | 66 | 356 | 0.0 | 2.0 | 0.00 | 0.56 | 0.01 | 59 | 1005.9 |
| 20260506123017 | 66 | 128 | 0.0 | 7.0 | 0.00 | 0.56 | 0.01 | 59 | 1005.9 |
| 20260506122037 | 66 | 84 | 0.0 | 2.0 | 0.00 | 0.56 | 0.01 | 60 | 1006.1 |
| 20260506121017 | 67 | 23 | 0.0 | 4.0 | 0.00 | 0.56 | 0.01 | 61 | 1006.1 |
| 20260506120037 | 67 | 353 | 0.0 | 4.0 | 0.00 | 0.56 | 0.01 | 62 | 1006.1 |
| 20260506115017 | 66 | 356 | 1.0 | 7.0 | 0.00 | 0.56 | 0.01 | 63 | 1006.2 |
| 20260506114017 | 65 | 0 | 1.0 | 4.0 | 0.00 | 0.56 | 0.01 | 65 | 1006.3 |
| 20260506113017 | 64 | 5 | 0.0 | 2.0 | 0.00 | 0.56 | 0.01 | 65 | 1006.3 |
| 20260506112037 | 64 | 83 | 2.0 | 9.0 | 0.00 | 0.56 | 0.01 | 64 | 1006.3 |
| 20260506111017 | 64 | 354 | 0.0 | 3.0 | 0.00 | 0.56 | 0.01 | 67 | 1006.4 |
| 20260506110017 | 64 | 349 | 0.0 | 2.0 | 0.00 | 0.56 | 0.01 | 66 | 1006.5 |
| 20260506105017 | 64 | 359 | 0.0 | 5.0 | 0.00 | 0.56 | 0.01 | 66 | 1006.5 |
| 20260506104017 | 65 | 131 | 0.0 | 5.0 | 0.00 | 0.56 | 0.01 | 64 | 1006.6 |
| 20260506103017 | 64 | 125 | 1.0 | 7.0 | 0.00 | 0.56 | 0.01 | 67 | 1006.6 |
| 20260506102037 | 63 | 339 | 0.0 | 1.0 | 0.00 | 0.56 | 0.01 | 70 | 1006.6 |
| 20260506101037 | 63 | 354 | 0.0 | 5.0 | 0.00 | 0.56 | 0.01 | 70 | 1006.6 |
| 20260506100017 | 64 | 354 | 0.0 | 7.0 | 0.00 | 0.56 | 0.01 | 68 | 1006.6 |
| 20260506095017 | 63 | 352 | 1.0 | 3.0 | 0.00 | 0.56 | 0.01 | 70 | 1006.6 |
| 20260506094017 | 63 | 346 | 1.0 | 5.0 | 0.00 | 0.56 | 0.01 | 72 | 1006.7 |
| 20260506093018 | 63 | 123 | 0.0 | 3.0 | 0.00 | 0.56 | 0.01 | 72 | 1006.7 |
| 20260506092017 | 62 | 124 | 2.0 | 9.0 | 0.00 | 0.56 | 0.01 | 73 | 1006.8 |
| 20260506091017 | 61 | 127 | 1.0 | 9.0 | 0.00 | 0.56 | 0.01 | 76 | 1006.8 |
| 20260506090017 | 60 | 127 | 0.0 | 3.0 | 0.00 | 0.56 | 0.01 | 78 | 1006.9 |
| 20260506085017 | 61 | 0.0 | 0.0 | 0.00 | 0.56 | 0.01 | 78 | 1006.9 | |
| 20260506084037 | 60 | 126 | 0.0 | 3.0 | 0.00 | 0.56 | 0.01 | 78 | 1006.9 |
| 20260506083017 | 61 | 34 | 0.0 | 6.0 | 0.00 | 0.56 | 0.01 | 79 | 1007.0 |
| 20260506082037 | 60 | 1 | 1.0 | 4.0 | 0.00 | 0.56 | 0.01 | 79 | 1006.9 |
| 20260506081017 | 60 | 124 | 2.0 | 9.0 | 0.00 | 0.56 | 0.01 | 80 | 1006.7 |
| 20260506073017 | 57 | 126 | 1.0 | 8.0 | 0.00 | 0.56 | 0.01 | 85 | 1006.8 |
| 20260506072017 | 57 | 0.0 | 0.0 | 0.00 | 0.56 | 0.01 | 87 | 1006.8 | |
| 20260506071017 | 57 | 0.0 | 0.0 | 0.00 | 0.56 | 0.01 | 89 | 1006.9 | |
| 20260506062017 | 55 | 0.0 | 0.0 | 0.00 | 0.56 | 0.01 | 93 | 1006.8 | |
| 20260506061017 | 54 | 0.0 | 0.0 | 0.00 | 0.56 | 0.01 | 93 | 1006.8 | |
| 20260506051017 | 54 | 124 | 0.0 | 5.0 | 0.00 | 0.56 | 0.01 | 93 | 1007.0 |
| 20260506045017 | 54 | 0.0 | 2.0 | 0.00 | 0.56 | 0.01 | 93 | 1006.9 | |
| 20260506044018 | 54 | 0.0 | 1.0 | 0.00 | 0.56 | 0.01 | 93 | 1006.9 | |
| 20260506043017 | 54 | 124 | 0.0 | 1.0 | 0.00 | 0.56 | 0.01 | 94 | 1006.9 |
| 20260506042017 | 54 | 124 | 0.0 | 1.0 | 0.00 | 0.56 | 0.01 | 94 | 1007.0 |
| 20260506041017 | 54 | 0.0 | 0.0 | 0.00 | 0.56 | 0.01 | 94 | 1006.9 | |
| 20260506040038 | 54 | 148 | 0.0 | 3.0 | 0.00 | 0.56 | 0.01 | 94 | 1006.8 |
| 20260506035018 | 54 | 0.0 | 0.0 | 0.00 | 0.56 | 0.01 | 94 | 1006.8 | |
| 20260506034018 | 54 | 0.0 | 0.0 | 0.00 | 0.56 | 0.01 | 94 | 1007.0 |